Date String (YYYY-MM-DD hh:mm:ss) UTC,Instrument flags,Ambient pressure (hPa),Sample flow (lpm),Bypass flow (lpm),Sample temperature (°C),Ambient temperature (°C),ASC tube jacket temperature (°C),LED temperature (°C),Box temperature (°C),Sample RH (%),Span deviation,Mass concentration (μg/m³),Mass concentration (μg/m³),Mass concentration (μg/m³)
DateTimeUTC,F1_M11,P_M11,Q1_M11,Q2_M11,T1_M11,T2_M11,T3_M11,T4_M11,T5_M11,U1_M11,ZSPAN_M11,X0_M11,X2_M11,X1_M11
2022-02-15 17:00:00,,0816.3,5.02,0.00,23.8,23.1,00.0,32.6,25.6,06.6,0000.0,0011.72,0003.51,0002.10
2022-02-15 17:01:00,,0816.5,4.99,0.00,23.8,23.2,00.0,32.6,25.6,06.5,0000.0,0011.63,0003.41,0002.07
2022-02-15 17:02:00,,0816.3,5.02,0.00,23.8,23.2,00.0,32.6,25.7,06.6,0000.0,0011.99,0003.37,0002.07
2022-02-15 17:03:00,,0816.1,4.99,0.00,23.9,23.2,00.0,32.7,25.7,06.2,0000.0,0012.74,0003.37,0002.09
2022-02-15 17:04:00,,0816.3,5.02,0.00,23.9,23.2,00.0,32.7,25.7,06.3,0000.0,0012.66,0003.31,0002.09
2022-02-15 17:05:00,,0816.1,4.99,0.00,23.9,23.3,00.0,32.7,25.8,06.5,0000.0,0012.56,0003.32,0002.10
2022-02-15 17:06:00,,0816.1,5.00,0.00,23.9,23.3,00.0,32.7,25.9,06.4,0000.0,0012.02,0003.31,0002.08
2022-02-15 17:07:00,,0816.3,5.01,0.00,24.0,23.3,00.0,32.8,25.9,06.8,0000.0,0010.40,0003.21,0002.07
2022-02-15 17:08:00,,0816.3,4.99,0.00,24.0,23.3,00.0,32.8,25.9,06.7,0000.0,0009.70,0003.17,0002.07
2022-02-15 17:09:00,,0816.2,5.01,0.00,24.0,23.4,00.0,32.8,25.9,07.0,0000.0,0008.94,0003.14,0002.08
2022-02-15 17:10:00,,0816.4,4.99,0.00,24.0,23.4,00.0,32.8,25.9,07.1,0000.0,0009.01,0003.13,0002.10
2022-02-15 17:11:00,,0816.3,5.00,0.00,24.1,23.4,00.0,32.8,26.0,07.1,0000.0,0009.34,0003.16,0002.14
2022-02-15 17:12:00,,0816.5,5.00,0.00,24.1,23.4,00.0,32.9,26.0,07.2,0000.0,0009.01,0003.19,0002.19
2022-02-15 17:13:00,,0816.5,4.99,0.00,24.1,23.4,00.0,32.9,26.0,07.3,0000.0,0008.44,0003.20,0002.23
2022-02-15 17:14:00,,0816.4,5.01,0.00,24.2,23.4,00.0,32.9,26.1,07.3,0000.0,0007.47,0003.23,0002.27
2022-02-15 17:15:00,,0816.2,4.99,0.00,24.2,23.4,00.0,32.9,26.1,07.4,0000.0,0007.31,0003.26,0002.34
2022-02-15 17:16:00,,0816.0,5.01,0.00,24.2,23.5,00.0,32.9,26.1,07.1,0000.0,0007.54,0003.25,0002.38
2022-02-15 17:17:00,,0816.0,4.99,0.00,24.2,23.5,00.0,33.0,26.1,07.2,0000.0,0007.78,0003.26,0002.43
2022-02-15 17:18:00,,0816.0,5.01,0.00,24.2,23.5,00.0,33.0,26.1,06.7,0000.0,0008.12,0003.29,0002.49
2022-02-15 17:19:00,,0815.9,5.00,0.00,24.3,23.5,00.0,33.0,26.2,06.5,0000.0,0008.05,0003.30,0002.51
2022-02-15 17:20:00,,0815.9,5.01,0.00,24.3,23.6,00.0,33.0,26.2,06.1,0000.0,0008.04,0003.32,0002.51
2022-02-15 17:21:00,,0815.9,4.98,0.00,24.3,23.6,00.0,33.0,26.2,05.8,0000.0,0007.93,0003.32,0002.48
2022-02-15 17:22:00,,0815.9,5.02,0.00,24.3,23.6,00.0,33.1,26.2,06.1,0000.0,0007.40,0003.29,0002.47
2022-02-15 17:23:00,,0815.9,4.98,0.00,24.4,23.6,00.0,33.1,26.3,06.7,0000.0,0007.27,0003.27,0002.48
2022-02-15 17:24:00,,0815.9,5.02,0.00,24.4,23.7,00.0,33.1,26.3,07.4,0000.0,0007.22,0003.30,0002.51
2022-02-15 17:25:00,,0815.9,4.99,0.00,24.4,23.7,00.0,33.1,26.4,08.1,0000.0,0007.54,0003.32,0002.58
2022-02-15 17:26:00,,0815.9,5.01,0.00,24.4,23.7,00.0,33.2,26.4,08.3,0000.0,0007.57,0003.37,0002.66
2022-02-15 17:27:00,,0815.9,5.01,0.00,24.5,23.7,00.0,33.2,26.4,07.6,0000.0,0007.67,0003.43,0002.74
2022-02-15 17:28:00,,0816.0,4.99,0.00,24.5,23.8,00.0,33.2,26.4,08.4,0000.0,0007.94,0003.50,0002.84
2022-02-15 17:29:00,,0815.9,5.01,0.00,24.5,23.8,00.0,33.2,26.4,08.5,0000.0,0007.77,0003.60,0002.98
2022-02-15 17:30:00,,0816.0,4.99,0.00,24.5,23.8,00.0,33.3,26.4,08.5,0000.0,0007.96,0003.72,0003.13
2022-02-15 17:31:00,,0816.0,5.01,0.00,24.5,23.9,00.0,33.3,26.5,08.5,0000.0,0008.21,0003.83,0003.24
2022-02-15 17:32:00,,0816.0,4.99,0.00,24.6,23.9,00.0,33.3,26.5,08.1,0000.0,0008.25,0003.91,0003.35
2022-02-15 17:33:00,,0815.9,5.00,0.00,24.6,23.9,00.0,33.3,26.6,07.7,0000.0,0008.36,0004.01,0003.43
2022-02-15 17:34:00,,0815.9,5.03,0.00,24.6,24.0,00.0,33.4,26.6,06.3,0000.0,0008.36,0004.03,0003.44
2022-02-15 17:35:00,,0815.9,4.98,0.00,24.6,24.0,00.0,33.4,26.6,07.8,0000.0,0008.32,0004.06,0003.47
2022-02-15 17:36:00,,0815.9,5.01,0.00,24.7,24.0,00.0,33.4,26.6,07.9,0000.0,0007.98,0004.07,0003.51
2022-02-15 17:37:00,,0815.9,4.99,0.00,24.7,24.0,00.0,33.4,26.6,07.3,0000.0,0007.92,0004.04,0003.50
2022-02-15 17:38:00,,0815.9,5.01,0.00,24.7,24.1,00.0,33.5,26.7,07.0,0000.0,0007.60,0004.01,0003.49
2022-02-15 17:39:00,,0815.9,5.00,0.00,24.8,24.1,00.0,33.5,26.7,07.7,0000.0,0007.16,0003.99,0003.49
2022-02-15 17:40:00,,0815.8,4.99,0.00,24.8,24.1,00.0,33.5,26.7,07.9,0000.0,0007.08,0003.98,0003.51
2022-02-15 17:41:00,,0815.8,5.01,0.00,24.8,24.1,00.0,33.5,26.7,07.3,0000.0,0007.51,0003.98,0003.51
2022-02-15 17:42:00,,0815.8,5.00,0.00,24.8,24.1,00.0,33.5,26.8,06.9,0000.0,0007.33,0003.93,0003.48
2022-02-15 17:43:00,,0815.8,5.00,0.00,24.9,24.1,00.0,33.6,26.8,07.0,0000.0,0007.30,0003.89,0003.46
2022-02-15 17:44:00,,0815.9,5.00,0.00,24.9,24.2,00.0,33.6,26.8,07.3,0000.0,0007.20,0003.89,0003.48
2022-02-15 17:45:00,,0815.8,5.00,0.00,24.9,24.2,00.0,33.6,26.8,07.1,0000.0,0007.41,0003.95,0003.54
2022-02-15 17:46:00,,0815.8,5.00,0.00,24.9,24.2,00.0,33.6,26.9,06.8,0000.0,0007.86,0003.98,0003.56
2022-02-15 17:47:00,,0815.8,5.01,0.00,25.0,24.3,00.0,33.7,26.9,07.4,0000.0,0008.09,0004.00,0003.59
2022-02-15 17:48:00,,0815.8,5.01,0.00,25.0,24.3,00.0,33.7,26.9,07.4,0000.0,0008.68,0004.10,0003.65
2022-02-15 17:49:00,,0815.8,5.00,0.00,25.0,24.3,00.0,33.7,26.9,07.4,0000.0,0008.73,0004.17,0003.71
2022-02-15 17:50:00,,0815.8,4.99,0.00,25.0,24.3,00.0,33.7,26.9,07.6,0000.0,0009.78,0004.28,0003.77
2022-02-15 17:51:00,,0815.8,5.01,0.00,25.0,24.4,00.0,33.8,27.0,07.9,0000.0,0009.76,0004.30,0003.79
2022-02-15 17:52:00,,0815.8,5.00,0.00,25.1,24.4,00.0,33.8,27.0,08.4,0000.0,0009.45,0004.34,0003.85
2022-02-15 17:53:00,,0815.8,4.99,0.00,25.1,24.4,00.0,33.8,27.0,08.4,0000.0,0009.65,0004.48,0003.95
2022-02-15 17:54:00,,0815.7,5.01,0.00,25.1,24.4,00.0,33.8,27.0,08.2,0000.0,0009.75,0004.59,0004.04
2022-02-15 17:55:00,,0815.7,4.98,0.00,25.1,24.5,00.0,33.9,27.1,08.5,0000.0,0009.82,0004.68,0004.13
2022-02-15 17:56:00,,0815.7,5.00,0.00,25.2,24.5,00.0,33.9,27.1,08.7,0000.0,0009.89,0004.79,0004.23
2022-02-15 17:57:00,,0815.7,5.01,0.00,25.2,24.5,00.0,33.9,27.1,08.2,0000.0,0009.67,0004.87,0004.33
2022-02-15 17:58:00,,0815.7,5.01,0.00,25.2,24.5,00.0,33.9,27.1,08.2,0000.0,0009.60,0004.93,0004.40
2022-02-15 17:59:00,,0815.7,4.99,0.00,25.2,24.5,00.0,34.0,27.2,07.9,0000.0,0009.10,0004.94,0004.43
